QPF
0.00 0.00 0.00 0.00 0.00 0.00 0.00 0.00 0.00 0.00 0.00 0.00 0.00 0.00 0.00 0.00 0.00 0.00 0.00 0.00 0.00 0.00 0.00 0.00 0.00 0.00 0.00 0.00 0.00 0.00 0.00 0.00 0.00 0.00 0.00 0.00 0.00 0.00 0.00 0.00 0.00 0.00 0.00 0.00 0.00 0.00 0.00 0.00 0.00
0.00 0.00 0.00 0.00 0.00 0.00 0.00 0.00 0.00 0.00 0.00 0.00 0.00 0.00 0.00 0.00 0.00 0.00 0.00 0.00 0.00 0.00 0.00 0.00 0.00 0.00 0.00 0.00 0.00 0.00 0.00 0.00 0.00 0.00 0.00 0.00 0.00 0.00 0.00 0.00 0.00 0.00 0.00 0.00 0.00 0.00 0.00 0.00 0.00
0.00 0.00 0.00 0.00 0.00 0.00 0.00 0.00 0.00 0.00 0.00 0.00 0.00 0.00 0.00 0.00 0.00 0.00 0.00 0.00 0.00 0.00 0.00 0.00 0.00 0.00 0.00 0.00 0.00 0.00 0.00 0.00 0.00 0.00 0.00 0.00 0.00 0.00 0.00 0.00 0.00 0.00 0.00 0.00 0.00 0.00 0.00 0.00 0.00
0.00 0.00 0.00 0.00 0.00 0.00 0.00 0.00 0.00 0.00 0.00 0.00 0.00 0.00 0.00 0.00 0.00 0.00 0.00 0.00 0.00 0.00 0.00 0.00 0.00 0.00 0.00 0.00 0.00 0.00 0.00 0.00 0.00 0.00 0.00 0.00 0.00 0.00 0.00 0.00 0.00 0.00 0.00 0.00 0.00 0.00 0.00 0.00 0.00
0.00 0.00 0.00 0.00 0.00 0.00 0.00 0.00 0.00 0.00 0.00 0.00 0.00 0.00 0.00 0.00 0.00 0.00 0.00 0.00 0.00 0.00 0.00 0.00 0.00 0.00 0.00 0.00 0.00 0.00 0.00 0.00 0.00 0.00 0.00 0.00 0.00 0.00 0.00 0.00 0.00 0.00 0.00 0.00 0.00 0.00 0.00 0.00 0.00
0.00 0.00 0.00 0.00 0.00 0.00 0.00 0.00 0.00 0.00 0.00 0.00 0.00 0.00 0.00 0.00 0.00 0.00 0.00 0.00 0.00 0.00 0.00 0.00 0.00 0.00 0.00 0.00 0.00 0.00 0.00 0.00 0.00 0.00 0.00 0.00 0.00 0.00 0.00 0.00 0.00 0.00 0.00 0.00 0.00 0.00 0.00 0.00 0.00
0.00 0.00 0.00 0.00 0.00 0.00 0.00 0.00 0.00 0.00 0.00 0.00 0.00 0.00 0.00 0.00 0.00 0.00 0.00 0.00 0.00 0.00 0.00 0.00 0.00 0.00 0.00 0.00 0.00 0.00 0.00 0.00 0.00 0.00 0.00 0.00 0.00 0.00 0.00 0.00 0.00 0.00 0.00 0.00 0.00 0.00 0.00 0.00 0.00
0.00 0.00 0.00 0.00 0.00 0.00 0.00 0.00 0.00 0.00 0.00 0.00 0.00 0.00 0.00 0.00 0.00 0.00 0.00 0.00 0.00 0.00 0.00 0.00 0.00 0.00 0.00 0.00 0.00 0.00 0.00 0.00 0.00 0.00 0.00 0.00 0.00 0.00 0.00 0.00 0.00 0.00 0.00 0.00 0.00 0.00 0.00 0.00 0.00
0.00 0.00 0.00 0.00 0.00 0.00 0.00 0.00 0.00 0.00 0.00 0.00 0.00 0.00 0.00 0.00 0.00 0.00 0.00 0.00 0.00 0.00 0.00 0.00 0.00 0.00 0.00 0.00 0.00 0.00 0.00 0.00 0.00 0.00 0.00 0.00 0.00 0.00 0.00 0.00 0.00 0.00 0.00 0.00 0.00 0.00 0.00 0.00 0.00
0.00 0.00 0.00 0.00 0.00 0.00 0.00 0.00 0.00 0.00 0.00 0.00 0.00 0.00 0.00 0.00 0.00 0.00 0.00 0.00 0.00 0.00 0.00 0.00 0.00 0.00 0.00 0.00 0.00 0.00 0.00 0.00 0.00 0.00 0.00 0.00 0.00 0.00 0.00 0.00 0.00 0.00 0.00 0.00 0.00 0.00 0.00 0.00 0.00
0.00 0.00 0.00 0.00 0.00 0.00 0.00 0.00 0.00 0.00 0.00 0.00 0.00 0.00 0.00 0.00 0.00 0.00 0.00 0.00 0.00 0.00 0.00 0.00 0.00 0.00 0.00 0.00 0.00 0.00 0.00 0.00 0.00 0.00 0.00 0.00 0.00 0.00 0.00 0.00 0.00 0.00 0.00 0.00 0.00 0.00 0.00 0.00 0.00
0.00 0.00 0.00 0.00 0.00 0.00 0.00 0.00 0.00 0.00 0.00 0.00 0.00 0.00 0.00 0.00 0.00 0.00 0.00 0.00 0.00 0.00 0.00 0.00 0.00 0.00 0.00 0.00 0.00 0.00 0.00 0.00 0.00 0.00 0.00 0.00 0.00 0.00 0.00 0.00 0.00 0.00 0.00 0.00 0.00 0.00 0.00 0.00 0.00
0.00 0.00 0.00 0.00 0.00 0.00 0.00 0.00 0.00 0.00 0.00 0.00 0.00 0.00 0.00 0.00 0.00 0.00 0.00 0.00 0.00 0.00 0.00 0.00 0.00 0.00 0.00 0.00 0.00 0.00 0.00 0.00 0.00 0.00 0.00 0.00 0.00 0.00 0.00 0.00 0.00 0.00 0.00 0.00 0.00 0.00 0.00 0.00 0.00
0.00 0.00 0.00 0.00 0.00 0.00 0.00 0.00 0.00 0.00 0.00 0.00 0.00 0.00 0.00 0.00 0.00 0.00 0.00 0.00 0.00 0.00 0.00 0.00 0.00 0.00 0.00 0.00 0.00 0.00 0.00 0.00 0.00 0.00 0.00 0.00 0.00 0.00 0.00 0.00 0.00 0.00 0.00 0.00 0.00 0.00 0.00 0.00 0.00
0.00 0.00 0.00 0.00 0.00 0.00 0.00 0.00 0.00 0.00 0.00 0.00 0.00 0.00 0.00 0.00 0.00 0.00 0.00 0.00 0.00 0.00 0.00 0.00 0.00 0.00 0.00 0.00 0.00 0.00 0.00 0.00 0.00 0.00 0.00 0.00 0.00 0.00 0.00 0.00 0.00 0.00 0.00 0.00 0.00 0.00 0.00 0.00 0.00
0.00 0.00 0.00 0.00 0.00 0.00 0.00 0.00 0.00 0.00 0.00 0.00 0.00 0.00 0.00 0.00 0.00 0.00 0.00 0.00 0.00 0.00 0.00 0.00 0.00 0.00 0.00 0.00 0.00 0.00 0.00 0.00 0.00 0.00 0.00 0.00 0.00 0.00 0.00 0.00 0.00 0.00 0.00 0.00 0.00 0.00 0.00 0.00 0.00
0.00 0.00 0.00 0.00 0.00 0.00 0.00 0.00 0.00 0.00 0.00 0.00 0.00 0.00 0.00 0.00 0.00 0.00 0.00 0.00 0.00 0.00 0.00 0.00 0.00 0.00 0.00 0.00 0.00 0.00 0.00 0.00 0.00 0.00 0.00 0.00 0.00 0.00 0.00 0.00 0.00 0.00 0.00 0.00 0.00 0.00 0.00 0.00 0.00
0.00 0.00 0.00 0.00 0.00 0.00 0.00 0.00 0.00 0.00 0.00 0.00 0.00 0.00 0.00 0.00 0.00 0.00 0.00 0.00 0.00 0.00 0.00 0.00 0.00 0.00 0.00 0.00 0.00 0.00 0.00 0.00 0.00 0.02 0.02 0.00 0.00 0.00 0.00 0.00 0.00 0.00 0.00 0.00 0.00 0.00 0.00 0.00 0.00
0.00 0.00 0.00 0.00 0.00 0.00 0.00 0.00 0.00 0.00 0.00 0.00 0.00 0.00 0.00 0.00 0.00 0.00 0.00 0.00 0.00 0.00 0.00 0.00 0.00 0.00 0.00 0.00 0.00 0.00 0.00 0.00 0.00 0.01 0.03 0.01 0.00 0.00 0.00 0.00 0.00 0.00 0.00 0.02 0.03 0.02 0.01 0.00 0.03
0.00 0.00 0.00 0.00 0.00 0.00 0.00 0.00 0.00 0.00 0.00 0.00 0.00 0.00 0.00 0.00 0.00 0.00 0.00 0.00 0.00 0.00 0.00 0.00 0.00 0.00 0.00 0.00 0.00 0.00 0.00 0.00 0.00 0.00 0.00 0.00 0.00 0.00 0.00 0.00 0.00 0.00 0.00 0.01 0.03 0.04 0.06 0.00 0.18
0.00 0.00 0.00 0.00 0.00 0.00 0.00 0.00 0.00 0.00 0.00 0.00 0.00 0.00 0.00 0.00 0.00 0.00 0.00 0.00 0.00 0.00 0.00 0.00 0.00 0.00 0.00 0.00 0.00 0.00 0.00 0.00 0.00 0.00 0.00 0.00 0.00 0.00 0.00 0.00 0.00 0.00 0.00 0.00 0.00 0.00 0.12 0.12 0.26
0.00 0.00 0.00 0.00 0.00 0.00 0.00 0.00 0.00 0.00 0.00 0.00 0.00 0.00 0.00 0.00 0.00 0.00 0.00 0.00 0.00 0.00 0.00 0.00 0.00 0.00 0.00 0.00 0.00 0.00 0.00 0.00 0.00 0.00 0.00 0.00 0.00 0.00 0.00 0.00 0.00 0.00 0.00 0.00 0.00 0.00 0.01 0.08 0.06
0.00 0.00 0.00 0.00 0.00 0.00 0.00 0.00 0.00 0.00 0.00 0.00 0.00 0.00 0.00 0.00 0.00 0.00 0.00 0.00 0.00 0.00 0.00 0.00 0.00 0.00 0.00 0.00 0.00 0.00 0.00 0.00 0.00 0.00 0.04 0.02 0.00 0.01 0.01 0.00 0.00 0.00 0.00 0.02 0.02 0.02 0.03 0.03 0.08
0.00 0.00 0.00 0.00 0.00 0.00 0.00 0.00 0.00 0.00 0.00 0.00 0.00 0.00 0.00 0.00 0.00 0.00 0.00 0.00 0.00 0.00 0.00 0.00 0.00 0.00 0.00 0.00 0.00 0.00 0.00 0.00 0.03 0.04 0.06 0.07 0.02 0.02 0.01 0.00 0.00 0.00 0.00 0.00 0.00 0.00 0.00 0.01 0.02
0.00 0.00 0.00 0.00 0.00 0.00 0.00 0.00 0.00 0.00 0.00 0.00 0.00 0.00 0.00 0.00 0.00 0.00 0.00 0.00 0.00 0.00 0.00 0.00 0.00 0.00 0.00 0.00 0.00 0.00 0.00 0.01 0.04 0.08 0.06 0.04 0.01 0.01 0.00 0.00 0.00 0.00 0.00 0.00 0.00 0.00 0.00 0.02 0.02
0.00 0.00 0.00 0.00 0.00 0.00 0.00 0.00 0.00 0.00 0.00 0.00 0.00 0.00 0.00 0.00 0.00 0.00 0.00 0.00 0.00 0.00 0.00 0.00 0.00 0.00 0.00 0.00 0.00 0.01 0.00 0.05 0.07 0.10 0.07 0.04 0.01 0.00 0.00 0.00 0.00 0.00 0.00 0.00 0.00 0.00 0.01 0.02 0.03
0.00 0.00 0.00 0.01 0.00 0.00 0.00 0.00 0.00 0.00 0.00 0.00 0.00 0.00 0.00 0.00 0.00 0.00 0.00 0.00 0.00 0.00 0.00 0.00 0.00 0.00 0.00 0.00 0.00 0.00 0.01 0.06 0.09 0.05 0.01 0.00 0.00 0.00 0.00 0.00 0.00 0.00 0.00 0.00 0.00 0.00 0.00 0.00 0.01
0.00 0.00 0.00 0.01 0.00 0.00 0.00 0.00 0.00 0.00 0.00 0.00 0.00 0.00 0.00 0.00 0.00 0.02 0.05 0.05 0.05 0.00 0.00 0.00 0.00 0.00 0.00 0.00 0.01 0.02 0.04 0.02 0.02 0.00 0.00 0.00 0.00 0.00 0.00 0.00 0.00 0.00 0.00 0.00 0.00 0.00 0.00 0.00 0.00
0.00 0.00 0.00 0.00 0.01 0.01 0.00 0.00 0.00 0.00 0.00 0.00 0.00 0.00 0.00 0.00 0.00 0.00 0.00 0.03 0.04 0.02 0.01 0.01 0.01 0.00 0.02 0.04 0.04 0.05 0.03 0.02 0.00 0.00 0.00 0.00 0.00 0.00 0.00 0.00 0.00 0.00 0.00 0.00 0.00 0.00 0.00 0.00 0.00
0.00 0.00 0.00 0.00 0.01 0.01 0.00 0.00 0.00 0.00 0.00 0.00 0.00 0.00 0.00 0.00 0.00 0.00 0.00 0.03 0.05 0.05 0.04 0.04 0.03 0.01 0.01 0.02 0.02 0.01 0.00 0.00 0.00 0.00 0.00 0.00 0.00 0.00 0.00 0.00 0.00 0.00 0.00 0.00 0.00 0.00 0.00 0.00 0.00
MSLP
1010.99 1011.02 1011.09 1010.97 1012.23 1012.64 1011.81 1010.67 1009.43 1008.59 1008.20 1007.70 1007.92 1008.57 1008.63 1008.65 1009.40 1010.23 1008.95 1009.21 1009.25 1009.91 1010.65 1011.49 1011.84 1012.41 1012.83 1013.19 1013.61 1013.72 1013.88 1014.13 1014.45 1014.72 1014.98 1015.16 1015.32 1015.52 1015.71 1015.86 1015.95 1015.95 1016.00 1016.08 1016.19 1016.26 1016.42 1016.56 1016.65
1011.07 1011.05 1011.25 1011.94 1012.71 1013.10 1011.54 1009.81 1008.68 1007.94 1007.35 1007.20 1007.49 1007.77 1007.81 1008.11 1008.45 1009.36 1009.43 1009.27 1009.43 1010.01 1010.72 1011.27 1011.81 1012.33 1012.67 1013.13 1013.55 1013.66 1013.93 1014.14 1014.39 1014.69 1014.90 1015.18 1015.40 1015.61 1015.81 1015.98 1016.14 1016.21 1016.27 1016.31 1016.39 1016.55 1016.74 1016.91 1017.02
1010.99 1011.02 1011.85 1012.65 1013.16 1012.62 1011.07 1009.24 1008.14 1007.74 1006.92 1006.80 1007.06 1007.14 1007.30 1007.82 1008.26 1008.57 1008.59 1009.26 1009.75 1010.46 1010.90 1011.28 1011.64 1012.29 1012.74 1013.16 1013.49 1013.58 1013.67 1013.90 1014.19 1014.54 1014.90 1015.30 1015.62 1015.85 1016.01 1016.15 1016.26 1016.32 1016.35 1016.46 1016.62 1016.75 1016.95 1017.15 1017.26
1011.17 1011.56 1012.57 1012.61 1012.71 1011.33 1010.03 1008.55 1007.76 1007.32 1007.02 1006.70 1006.86 1007.39 1007.26 1007.14 1007.58 1007.88 1008.57 1009.48 1010.09 1010.48 1011.03 1011.53 1011.86 1012.29 1012.85 1013.21 1013.44 1013.59 1013.66 1013.92 1014.25 1014.55 1014.85 1015.19 1015.45 1015.70 1016.01 1016.28 1016.47 1016.58 1016.60 1016.60 1016.71 1016.84 1016.96 1017.10 1017.22
1011.67 1012.22 1012.81 1012.81 1012.09 1010.58 1009.15 1008.07 1007.37 1007.19 1006.93 1006.76 1006.91 1007.36 1007.59 1007.55 1007.67 1008.24 1008.58 1009.44 1010.13 1010.83 1010.98 1011.64 1012.08 1012.40 1012.29 1012.68 1013.11 1013.54 1013.78 1013.86 1014.07 1014.42 1014.69 1014.97 1015.29 1015.58 1015.82 1016.06 1016.28 1016.41 1016.54 1016.68 1016.82 1016.98 1017.09 1017.12 1017.14
1012.13 1012.74 1013.11 1012.75 1011.47 1010.04 1008.86 1007.64 1007.01 1006.82 1006.50 1006.61 1006.88 1007.54 1007.91 1007.83 1008.17 1008.56 1008.96 1009.26 1010.10 1010.53 1010.99 1011.55 1012.06 1012.36 1012.87 1013.11 1012.99 1013.33 1013.70 1013.95 1014.19 1014.39 1014.74 1015.13 1015.40 1015.61 1015.78 1015.95 1016.19 1016.39 1016.50 1016.60 1016.77 1016.93 1017.05 1017.09 1017.10
1012.46 1013.09 1013.11 1012.53 1011.46 1009.80 1008.46 1007.45 1007.41 1006.91 1006.28 1006.29 1006.54 1007.43 1008.00 1008.32 1008.34 1008.75 1009.32 1009.91 1010.14 1010.79 1011.19 1011.37 1012.11 1012.20 1012.61 1012.95 1013.88 1013.82 1013.89 1014.17 1014.24 1014.47 1014.78 1015.06 1015.35 1015.57 1015.70 1015.88 1016.05 1016.21 1016.39 1016.51 1016.58 1016.70 1016.85 1016.96 1017.01
1012.06 1012.83 1012.99 1012.25 1011.27 1009.80 1008.25 1007.35 1006.65 1006.87 1006.54 1006.25 1006.31 1007.14 1007.61 1007.54 1008.46 1009.09 1009.65 1010.07 1010.58 1010.88 1011.28 1011.39 1011.57 1012.24 1012.59 1012.79 1012.89 1013.62 1014.09 1014.16 1014.38 1014.65 1014.56 1014.57 1014.78 1015.06 1015.29 1015.51 1015.72 1015.90 1016.08 1016.24 1016.36 1016.45 1016.48 1016.53 1016.65
1011.79 1012.66 1012.97 1011.94 1010.82 1009.48 1008.31 1007.76 1006.68 1006.42 1006.29 1006.22 1006.24 1006.47 1006.41 1006.92 1008.40 1009.41 1010.19 1010.56 1010.85 1010.99 1011.13 1011.48 1011.48 1011.55 1012.06 1012.54 1012.87 1013.01 1013.34 1013.81 1014.03 1014.21 1014.41 1014.68 1014.84 1014.91 1014.94 1014.98 1015.05 1015.18 1015.38 1015.63 1015.83 1016.02 1016.20 1016.32 1016.36
1011.92 1012.61 1012.10 1011.19 1010.19 1009.31 1008.33 1007.98 1007.31 1006.82 1006.49 1006.32 1006.38 1006.58 1006.73 1007.42 1008.25 1009.10 1009.61 1010.03 1010.58 1010.61 1010.80 1011.33 1011.64 1011.52 1011.56 1011.82 1012.30 1012.71 1013.06 1013.33 1013.59 1013.68 1013.85 1014.15 1014.49 1014.69 1014.74 1014.84 1014.92 1015.05 1015.24 1015.33 1015.43 1015.59 1015.77 1015.88 1015.98
1011.76 1011.99 1011.26 1010.42 1009.96 1009.48 1008.59 1007.70 1007.30 1007.02 1006.48 1006.14 1006.32 1007.01 1007.46 1007.71 1008.37 1008.74 1009.15 1009.01 1008.64 1009.48 1010.16 1010.15 1010.67 1011.11 1011.36 1011.64 1011.63 1012.03 1012.53 1012.75 1013.01 1013.37 1013.58 1013.74 1013.94 1014.18 1014.48 1014.66 1014.80 1014.96 1015.07 1015.26 1015.38 1015.49 1015.60 1015.70 1015.82
1011.68 1011.10 1010.94 1010.29 1009.62 1009.58 1008.86 1007.84 1007.39 1007.07 1006.17 1005.68 1005.79 1006.11 1007.08 1007.54 1007.84 1008.12 1008.45 1008.60 1008.90 1009.28 1009.12 1009.47 1009.74 1010.31 1011.07 1011.25 1011.67 1011.68 1011.81 1012.10 1012.41 1012.54 1012.93 1013.32 1013.55 1013.69 1013.96 1014.22 1014.49 1014.90 1015.07 1015.23 1015.34 1015.42 1015.39 1015.45 1015.50
1011.27 1010.94 1010.58 1010.04 1009.69 1009.34 1008.70 1008.09 1007.55 1006.64 1005.51 1005.67 1005.83 1006.24 1006.50 1006.81 1006.90 1006.90 1006.97 1007.83 1008.49 1008.66 1008.88 1008.85 1008.98 1009.15 1009.44 1010.28 1010.74 1011.34 1011.63 1011.73 1011.83 1012.11 1012.35 1012.68 1013.08 1013.41 1013.59 1013.83 1014.06 1014.24 1014.59 1014.94 1015.18 1015.27 1015.33 1015.38 1015.35
1011.21 1010.88 1010.26 1009.61 1009.22 1008.70 1008.49 1007.63 1007.43 1005.79 1005.21 1005.42 1005.86 1006.08 1005.97 1006.00 1006.07 1006.28 1006.92 1006.94 1007.33 1007.39 1007.68 1008.16 1008.23 1008.09 1008.70 1008.71 1009.10 1009.50 1010.24 1010.57 1011.20 1011.47 1011.68 1012.10 1012.45 1012.74 1013.13 1013.45 1013.68 1013.89 1014.00 1014.11 1014.44 1014.73 1014.98 1015.02 1015.08
1011.38 1011.07 1010.11 1009.28 1008.93 1008.63 1008.14 1007.64 1007.20 1005.32 1005.35 1005.42 1005.34 1005.83 1005.70 1005.57 1005.35 1005.39 1005.13 1005.40 1005.49 1005.80 1005.89 1006.89 1007.41 1008.19 1008.09 1008.28 1008.76 1009.26 1009.48 1010.16 1010.43 1010.46 1010.72 1010.98 1011.44 1011.83 1012.18 1012.79 1013.09 1013.07 1013.38 1013.72 1013.90 1014.03 1014.33 1014.68 1014.75
1011.93 1011.64 1010.96 1009.61 1009.19 1008.71 1008.42 1007.79 1006.44 1005.92 1005.89 1005.50 1005.17 1005.29 1005.46 1004.86 1004.44 1004.28 1004.13 1004.15 1004.48 1004.81 1005.45 1005.43 1006.24 1006.88 1007.64 1007.61 1007.75 1008.16 1008.75 1009.16 1009.63 1009.96 1010.20 1010.41 1010.61 1011.03 1011.58 1011.98 1012.22 1012.31 1012.74 1013.07 1013.56 1013.84 1014.00 1014.10 1014.16
1012.78 1012.29 1011.61 1010.31 1009.33 1009.28 1009.11 1008.48 1006.57 1005.67 1006.16 1006.16 1005.68 1005.20 1005.03 1005.24 1004.24 1003.89 1003.49 1003.33 1003.39 1003.56 1004.02 1004.56 1005.23 1005.66 1006.02 1006.85 1007.34 1007.66 1007.91 1008.41 1008.74 1009.22 1009.52 1009.79 1010.18 1010.38 1010.80 1011.35 1011.49 1011.77 1012.24 1012.60 1012.97 1013.12 1013.29 1013.39 1013.32
1013.02 1012.77 1012.04 1011.34 1010.05 1009.68 1009.12 1008.37 1007.17 1006.40 1006.32 1006.09 1005.74 1005.11 1004.62 1004.10 1003.30 1002.82 1002.46 1002.63 1002.47 1002.40 1002.96 1003.36 1004.02 1004.36 1004.96 1006.08 1006.99 1007.39 1007.79 1007.81 1008.04 1008.44 1009.10 1009.56 1009.90 1010.30 1010.59 1010.82 1011.01 1011.27 1011.89 1012.15 1012.21 1012.22 1012.24 1012.15 1012.21
1012.91 1012.72 1012.50 1011.36 1010.40 1010.43 1009.06 1008.12 1007.43 1006.58 1006.44 1006.01 1005.37 1004.93 1004.23 1003.52 1002.25 1001.84 1001.81 1001.45 1001.60 1001.90 1002.18 1002.56 1003.07 1003.39 1004.61 1005.18 1005.76 1006.32 1006.32 1007.14 1007.51 1007.93 1008.36 1008.58 1009.13 1009.48 1010.11 1010.41 1010.68 1010.93 1011.23 1011.26 1011.37 1011.52 1011.83 1011.67 1011.63
1012.76 1012.78 1012.28 1010.75 1010.41 1010.67 1008.59 1007.34 1007.15 1006.74 1005.86 1005.31 1004.89 1004.37 1003.69 1003.11 1002.37 1001.55 1000.69 1000.60 1000.87 1000.71 1000.87 1001.35 1001.65 1002.33 1002.97 1003.56 1003.88 1004.88 1005.50 1006.03 1006.83 1007.42 1007.79 1008.07 1008.24 1008.63 1009.28 1009.70 1010.10 1010.31 1010.49 1010.69 1010.82 1010.93 1011.05 1010.69 1010.95
1012.34 1012.57 1012.00 1011.07 1010.50 1009.79 1009.38 1007.25 1006.10 1005.91 1005.43 1004.56 1003.91 1003.40 1002.86 1002.72 1002.28 1001.18 1000.35 999.70 999.62 999.98 999.86 1000.02 1000.38 1001.03 1001.62 1002.17 1003.49 1004.49 1005.25 1005.89 1006.35 1006.64 1006.93 1007.06 1007.73 1008.17 1008.54 1008.95 1009.26 1009.49 1009.66 1009.67 1009.98 1010.33 1010.34 1010.13 1010.24
1011.79 1012.02 1011.55 1011.16 1010.81 1010.06 1009.65 1007.75 1005.30 1005.59 1004.92 1004.50 1003.72 1002.96 1002.43 1002.12 1001.65 1001.07 1000.47 1000.22 999.40 999.19 999.41 999.44 999.67 1000.19 1000.95 1001.88 1002.69 1003.33 1003.84 1004.72 1004.91 1005.45 1006.05 1006.78 1007.46 1007.85 1008.20 1008.20 1008.35 1008.55 1008.83 1008.94 1008.91 1009.30 1009.42 1009.71 1009.41
1011.44 1011.62 1011.59 1011.26 1010.96 1010.61 1008.67 1009.26 1004.91 1005.55 1004.94 1004.44 1003.84 1002.88 1001.95 1001.91 1001.66 1000.91 1000.62 1000.41 1000.43 999.13 999.00 998.98 999.50 999.94 1000.52 1001.22 1001.97 1002.93 1003.68 1004.36 1004.85 1005.52 1006.10 1006.36 1006.64 1007.12 1007.77 1007.78 1007.99 1008.33 1008.28 1008.36 1008.51 1008.62 1008.63 1008.85 1008.95
1011.61 1011.42 1011.31 1011.07 1010.93 1010.54 1009.02 1008.94 1007.31 1004.63 1004.69 1004.02 1003.34 1002.67 1002.70 1002.24 1001.58 1000.92 1000.25 1000.02 999.99 1000.07 999.13 999.21 999.35 999.67 1000.20 1000.98 1001.74 1002.46 1003.21 1004.07 1004.81 1005.55 1006.05 1006.50 1006.94 1007.01 1007.42 1007.49 1007.61 1007.76 1008.09 1008.14 1008.20 1008.21 1008.29 1008.36 1008.26
1012.30 1012.33 1011.89 1011.60 1011.10 1010.44 1009.55 1008.44 1006.17 1005.20 1004.80 1004.40 1004.15 1003.95 1003.25 1002.56 1001.76 1001.13 1000.13 999.79 999.52 1000.02 999.25 999.27 999.79 1000.06 1000.39 1000.92 1001.55 1002.26 1003.01 1003.74 1004.44 1005.13 1005.80 1006.45 1007.10 1007.63 1007.78 1007.62 1007.89 1008.06 1008.24 1008.16 1008.15 1008.05 1007.87 1007.79 1007.72
1013.31 1013.14 1013.17 1012.24 1012.13 1011.33 1010.22 1008.33 1005.58 1005.09 1005.01 1005.34 1005.18 1004.73 1003.76 1002.95 1002.56 1002.22 1001.24 1001.07 1001.26 1001.64 999.81 999.54 999.95 1000.51 1000.85 1001.35 1001.90 1002.46 1003.22 1003.93 1004.55 1005.20 1006.18 1006.58 1007.60 1008.17 1008.35 1008.40 1008.60 1008.80 1008.77 1008.67 1008.65 1008.46 1008.33 1008.13 1007.75
1013.56 1013.29 1012.67 1013.00 1013.11 1013.67 1011.73 1008.99 1006.40 1005.88 1005.75 1006.12 1005.96 1005.29 1004.54 1003.81 1003.39 1002.78 1001.83 1001.41 1002.25 1002.67 1003.28 1000.66 1000.46 1001.07 1001.83 1002.32 1002.76 1003.27 1003.99 1004.55 1005.05 1005.90 1006.61 1007.53 1008.07 1008.48 1008.73 1009.23 1009.33 1009.52 1009.54 1009.50 1009.34 1009.26 1009.19 1008.98 1008.74
1014.20 1014.03 1013.54 1014.49 1014.42 1013.70 1011.98 1010.36 1008.48 1007.57 1007.72 1007.46 1006.88 1006.34 1005.48 1004.09 1003.32 1002.69 1002.61 1001.49 1002.91 1003.26 1003.63 1003.79 1001.74 1001.78 1003.08 1003.23 1003.90 1004.19 1004.65 1005.23 1005.91 1006.82 1007.58 1008.13 1008.62 1009.39 1009.56 1009.92 1009.99 1009.98 1010.03 1010.20 1010.01 1009.87 1009.88 1009.58 1009.48
1015.32 1014.93 1015.18 1015.64 1015.67 1014.52 1013.17 1010.89 1009.82 1009.72 1009.51 1008.90 1008.36 1007.82 1006.75 1005.19 1004.57 1003.94 1003.48 1003.25 1001.85 1003.40 1004.07 1004.54 1004.50 1003.28 1003.75 1004.52 1004.58 1004.98 1005.77 1006.41 1006.57 1007.38 1008.33 1008.88 1009.33 1010.12 1010.24 1010.50 1010.76 1010.75 1010.70 1010.83 1010.83 1010.69 1010.50 1010.30 1010.41
1016.31 1016.46 1016.35 1016.41 1016.43 1015.97 1014.52 1011.90 1010.29 1010.48 1010.45 1010.02 1009.61 1008.80 1007.61 1006.14 1005.36 1004.97 1005.09 1004.59 1003.77 1002.32 1003.83 1004.27 1006.21 1005.10 1005.28 1006.26 1006.45 1006.62 1006.87 1007.21 1007.79 1008.28 1009.01 1009.48 1009.85 1010.41 1010.83 1011.35 1011.70 1011.75 1011.81 1011.63 1011.47 1011.42 1011.33 1011.35 1011.23
Thickness
5789 5790 5789 5782 5749 5733 5730 5750 5765 5768 5771 5785 5783 5770 5767 5774 5758 5734 5781 5779 5779 5776 5769 5762 5760 5754 5751 5749 5745 5745 5746 5745 5744 5742 5741 5741 5740 5738 5736 5735 5734 5734 5734 5733 5732 5731 5730 5728 5727
5790 5790 5784 5762 5730 5714 5730 5756 5765 5772 5786 5792 5791 5784 5780 5770 5779 5769 5771 5779 5777 5773 5768 5764 5761 5757 5755 5752 5749 5748 5746 5746 5746 5744 5743 5741 5740 5738 5737 5735 5733 5732 5732 5731 5730 5729 5727 5725 5724
5792 5791 5768 5742 5715 5722 5734 5766 5774 5781 5791 5794 5791 5797 5788 5780 5785 5781 5786 5780 5774 5769 5765 5764 5763 5759 5756 5753 5751 5751 5751 5750 5748 5747 5744 5741 5738 5736 5735 5734 5733 5732 5731 5729 5727 5727 5725 5723 5722
5788 5780 5762 5737 5737 5750 5761 5773 5781 5779 5787 5796 5792 5778 5796 5806 5796 5797 5790 5780 5772 5769 5765 5760 5760 5760 5756 5754 5752 5752 5753 5752 5750 5748 5745 5742 5740 5738 5734 5732 5730 5729 5728 5727 5726 5725 5724 5723 5721
5783 5766 5742 5736 5742 5759 5772 5780 5785 5778 5782 5787 5790 5777 5784 5802 5804 5798 5791 5782 5772 5766 5765 5759 5756 5756 5762 5761 5757 5753 5752 5753 5752 5749 5747 5745 5742 5739 5737 5734 5732 5730 5728 5725 5724 5722 5721 5721 5721
5764 5758 5731 5729 5746 5765 5775 5784 5785 5784 5790 5789 5785 5776 5779 5799 5796 5793 5789 5784 5776 5770 5764 5760 5756 5755 5751 5754 5758 5756 5753 5751 5750 5749 5746 5742 5740 5738 5737 5735 5732 5729 5728 5726 5723 5721 5719 5719 5719
5757 5741 5733 5739 5743 5759 5779 5788 5782 5780 5784 5786 5796 5774 5785 5788 5793 5791 5786 5778 5775 5768 5763 5762 5756 5756 5754 5753 5746 5749 5750 5748 5749 5747 5745 5742 5739 5737 5736 5734 5732 5730 5728 5726 5725 5723 5721 5719 5718
5760 5746 5739 5740 5740 5750 5782 5788 5799 5785 5781 5802 5800 5773 5775 5795 5792 5787 5782 5778 5771 5768 5764 5763 5760 5756 5753 5753 5754 5749 5746 5747 5745 5743 5745 5746 5745 5743 5740 5737 5734 5731 5729 5727 5725 5724 5723 5722 5719
5771 5735 5720 5741 5749 5760 5783 5779 5797 5802 5795 5796 5799 5796 5804 5803 5793 5782 5774 5773 5771 5767 5765 5762 5763 5761 5758 5755 5753 5753 5751 5747 5746 5745 5744 5742 5741 5741 5741 5740 5738 5736 5734 5730 5727 5725 5723 5721 5719
5752 5729 5740 5758 5768 5771 5779 5781 5785 5784 5782 5789 5792 5798 5801 5797 5789 5780 5776 5773 5769 5770 5766 5760 5758 5761 5761 5759 5756 5754 5751 5750 5749 5749 5748 5745 5742 5740 5739 5738 5737 5735 5732 5731 5729 5726 5723 5721 5720
5754 5736 5757 5762 5769 5773 5774 5779 5789 5782 5775 5791 5789 5787 5790 5789 5784 5781 5777 5780 5783 5777 5772 5772 5766 5761 5760 5759 5759 5757 5753 5753 5751 5748 5746 5745 5744 5742 5738 5736 5734 5732 5729 5726 5724 5723 5720 5719 5717
5749 5758 5759 5768 5776 5769 5769 5781 5780 5780 5789 5798 5802 5802 5794 5789 5785 5782 5779 5778 5776 5774 5777 5776 5774 5767 5760 5757 5754 5755 5756 5754 5752 5751 5749 5745 5743 5742 5740 5736 5733 5727 5724 5721 5719 5717 5716 5714 5713
5750 5757 5761 5765 5765 5765 5770 5770 5772 5780 5798 5797 5797 5794 5795 5793 5793 5794 5792 5784 5777 5774 5774 5777 5778 5776 5772 5764 5759 5753 5752 5752 5753 5751 5749 5746 5742 5740 5737 5734 5731 5728 5723 5717 5713 5711 5709 5707 5706
5753 5754 5758 5765 5764 5764 5760 5768 5771 5788 5799 5796 5789 5785 5791 5796 5795 5795 5789 5787 5783 5783 5781 5778 5780 5782 5777 5775 5770 5766 5758 5756 5752 5751 5749 5746 5742 5739 5736 5732 5728 5724 5722 5719 5714 5709 5706 5704 5701
5746 5740 5751 5763 5763 5760 5760 5756 5757 5791 5791 5787 5789 5783 5788 5791 5798 5797 5801 5798 5797 5795 5793 5784 5781 5775 5777 5776 5771 5765 5761 5754 5752 5751 5749 5747 5743 5741 5738 5731 5726 5725 5721 5716 5714 5711 5707 5701 5699
5725 5727 5719 5753 5749 5754 5753 5736 5768 5775 5776 5779 5784 5786 5783 5791 5798 5804 5806 5806 5804 5801 5794 5793 5787 5781 5775 5776 5775 5770 5765 5761 5755 5751 5749 5747 5744 5740 5737 5734 5729 5726 5721 5716 5710 5706 5703 5700 5697
5706 5692 5705 5723 5747 5739 5740 5729 5765 5778 5769 5765 5774 5780 5782 5778 5791 5798 5802 5806 5808 5808 5803 5797 5791 5787 5783 5776 5772 5769 5767 5763 5760 5754 5751 5748 5744 5741 5737 5732 5729 5724 5720 5715 5709 5705 5702 5700 5698
5683 5682 5692 5695 5728 5725 5720 5723 5750 5762 5758 5759 5768 5775 5778 5785 5795 5800 5806 5806 5808 5812 5809 5804 5796 5793 5787 5777 5768 5764 5761 5760 5759 5756 5749 5742 5738 5734 5730 5728 5726 5721 5716 5712 5711 5709 5706 5704 5701
5684 5679 5671 5691 5717 5707 5715 5722 5736 5749 5745 5751 5765 5769 5775 5782 5802 5808 5806 5809 5807 5807 5803 5804 5798 5795 5782 5777 5770 5764 5763 5758 5756 5752 5748 5745 5736 5734 5728 5725 5722 5718 5713 5712 5711 5707 5704 5704 5700
5672 5665 5667 5692 5704 5693 5711 5715 5727 5733 5744 5753 5758 5768 5772 5777 5788 5800 5811 5810 5807 5808 5806 5804 5806 5799 5790 5785 5781 5771 5765 5762 5756 5751 5747 5742 5741 5736 5731 5727 5722 5719 5714 5711 5708 5705 5701 5704 5698
5666 5653 5659 5668 5685 5691 5681 5698 5723 5730 5734 5749 5760 5767 5777 5776 5778 5794 5803 5811 5810 5807 5808 5808 5808 5804 5797 5792 5779 5770 5762 5756 5751 5749 5745 5745 5738 5734 5731 5727 5724 5721 5717 5714 5709 5704 5700 5698 5696
5647 5664 5661 5661 5657 5644 5680 5653 5716 5716 5727 5735 5742 5760 5770 5774 5776 5780 5790 5794 5804 5807 5806 5808 5808 5803 5797 5789 5779 5773 5767 5758 5758 5751 5746 5739 5733 5730 5727 5728 5725 5722 5718 5715 5713 5706 5701 5695 5695
5644 5654 5646 5649 5643 5635 5669 5624 5700 5714 5708 5719 5736 5752 5766 5762 5761 5769 5775 5780 5786 5803 5804 5804 5800 5797 5793 5787 5780 5770 5762 5755 5750 5743 5737 5734 5731 5727 5723 5724 5722 5717 5716 5713 5709 5705 5701 5695 5689
5646 5640 5637 5635 5633 5612 5649 5630 5649 5703 5702 5716 5733 5743 5735 5740 5750 5763 5769 5775 5781 5784 5794 5793 5793 5791 5788 5782 5775 5768 5759 5749 5742 5734 5729 5721 5719 5721 5718 5718 5716 5714 5708 5705 5703 5701 5696 5689 5687
5624 5614 5599 5597 5605 5604 5642 5629 5655 5689 5700 5703 5703 5705 5717 5725 5735 5748 5760 5765 5777 5774 5784 5783 5780 5779 5777 5774 5769 5762 5754 5746 5740 5733 5725 5715 5712 5709 5708 5709 5706 5702 5699 5698 5695 5692 5690 5686 5681
5603 5605 5584 5578 5581 5598 5628 5616 5659 5688 5690 5684 5683 5686 5701 5707 5714 5723 5738 5742 5746 5745 5770 5772 5770 5766 5764 5760 5756 5752 5745 5738 5732 5725 5715 5709 5700 5697 5695 5695 5692 5689 5686 5683 5680 5678 5675 5671 5668
5598 5587 5603 5584 5589 5559 5584 5625 5659 5674 5670 5661 5659 5664 5675 5687 5697 5710 5721 5730 5725 5724 5718 5751 5754 5749 5745 5741 5738 5734 5728 5724 5718 5710 5704 5696 5691 5687 5684 5678 5675 5672 5668 5665 5663 5659 5655 5651 5647
5586 5587 5574 5572 5562 5566 5585 5597 5620 5634 5627 5627 5633 5640 5653 5673 5688 5699 5703 5717 5709 5709 5708 5707 5730 5727 5719 5722 5717 5715 5712 5707 5703 5695 5688 5682 5678 5670 5668 5663 5660 5658 5653 5647 5645 5642 5635 5632 5627
5559 5562 5565 5560 5557 5557 5558 5592 5615 5601 5602 5603 5613 5621 5631 5655 5668 5674 5683 5688 5705 5691 5687 5688 5686 5703 5702 5697 5698 5694 5691 5687 5686 5680 5671 5666 5661 5653 5651 5648 5642 5639 5637 5632 5627 5623 5618 5613 5605
5550 5545 5548 5543 5544 5541 5552 5573 5599 5592 5591 5592 5591 5599 5614 5634 5650 5656 5657 5665 5675 5689 5681 5680 5662 5673 5677 5671 5671 5672 5672 5670 5665 5661 5654 5650 5646 5641 5636 5629 5623 5619 5616 5613 5609 5603 5597 5591 5586